Location: St. Louis
(38.6270°N, 90.1994°W)
Time: 09:42:35
(UTC-06:00)

Vanguard 2 Rocket - Pass Details

Date: 09 December 2021
Orbit: 553 x 3325 km, 32.9° (Epoch: 23 January)

Event Time Altitude Azimuth Distance (km) Brightness Sun altitude
Rises 21:49:13 0° 270° (W) 4,089 10.7 -59.2°
Enters shadow 21:51:14 - 263° (W) 3,600 10.2 -59.6°
Reaches altitude 10° 21:51:59 10° 259° (W) 3,443 - -59.7°
Maximum altitude 21:59:40 30° 202° (SSW) 2,987 - -61.1°
Drops below altitude 10° 22:11:31 10° 150° (SSE) 5,384 - -63.2°
Sets 22:17:17 0° 141° (SE) 6,790 - -64.2°
